Weather Roundup
Issued by NWS

Home | Current Version | Previous Version | Text Only | Print | Product List | Glossary On
Versions: 1 2 3 4 5 6 7 8 9 10 11 12 13 14 15 16 17 18 19 20 21 22 23 24 25 26 27 28 29 30 31 32 33 34 35 36 37 38 39 40 41 42 43 44 45 46 47 48 49 50
000
NZUS93 KARX 252359
HRRWXR

CURRENT HOURLY OBSERVATIONS ACROSS
MUCH OF THE UPPER MISSISSIPPI VALLEY
NATIONAL WEATHER SERVICE LA CROSSE WI
600 PM CST TUE NOV 25 2014


...SOUTHEAST MINNESOTA...


CITY           SKY/WX    TMP DP  RH WIND       PRES   REMARKS
ROCHESTER      CLEAR     19  13  77 S3        30.04R
ROCHESTER/MAYO FAIR      23  13  65 SE6       30.04S WCI  16
WINONA         PTCLDY    23  16  74 CALM      30.09R
AUSTIN         CLOUDY    21  16  79 S3        30.04R
ALBERT LEA     PTCLDY    25  16  68 SE7       30.00F WCI  17
DODGE CENTER   PTCLDY    19  16  86 S8        30.02F WCI   9
PRESTON        CLEAR     16  11  83 S9        30.04F WCI   4
OWATONNA       CLOUDY    23  16  74 SE8       30.01S WCI  14
FARIBAULT      CLOUDY    25  16  68 SE8       30.02S WCI  16
$$

...ELSEWHERE IN MINNESOTA...


CITY           SKY/WX    TMP DP  RH WIND       PRES   REMARKS
MINNEAPOLIS    CLOUDY    23  14  68 SE7       30.03S WCI  15
INTNL FALLS    MOCLDY     9   5  84 CALM      29.98R
DULUTH         MOCLDY    17   6  62 SW5       29.97R WCI  10
RED WING       CLOUDY    25  16  68 SE3       30.04S
REDWOOD FALLS  CLOUDY    28  16  60 SE12      29.95R WCI  18
MANKATO        CLOUDY    27  14  59 SE12      29.99S WCI  16
WORTHINGTON    CLOUDY    30  18  59 SE9       29.91S WCI  22
FAIRMONT       PTCLDY    28  12  50 SE13      29.96F WCI  18
$$

...SOUTHWEST WISCONSIN...


CITY           SKY/WX    TMP DP  RH WIND       PRES   REMARKS
LA CROSSE      CLOUDY    24  14  65 S6        30.09F WCI  17
PRAIRIE DU CHI CLEAR     20  14  78 CALM      30.12S
BOSCOBEL       CLEAR     18  12  77 CALM      30.13R
LONE ROCK      NOT AVBL
PLATTEVILLE    CLEAR     19  15  84 CALM      30.11S
FORT MC COY    CLOUDY    15  14  95 CALM      30.10S
VIROQUA        FAIR      19  13  78 CALM      30.07R
WIS DELLS      CLEAR     15  13  92 CALM      30.09S
$$

...ELSEWHERE IN WISCONSIN...


CITY           SKY/WX    TMP DP  RH WIND       PRES   REMARKS
MILWAUKEE      CLOUDY    22  15  75 W9        30.14R WCI  12
MADISON        MOCLDY    22  15  75 CALM      30.11F
GREEN BAY      CLOUDY    22  16  78 SW9       30.11R WCI  12
EAU CLAIRE     NOT AVBL
BLACK RVR FLS  CLOUDY    22  16  75 CALM      30.08S
MEDFORD        CLOUDY    15  11  85 S3        30.03R
WAUSAU         CLEAR     16  11  80 SW3       30.05S
WIS RAPIDS     MOCLDY    13   9  84 S3        30.09S
MARSHFIELD     CLOUDY    19  12  74 S3        30.05S
RICE LAKE      CLOUDY    21  14  74 SE3       30.04S
$$

...NORTHEAST IOWA...


CITY           SKY/WX    TMP DP  RH WIND       PRES   REMARKS
DECORAH        CLEAR     16  12  86 S5        30.06S WCI   9
MASON CITY     PTCLDY    22  16  78 SE12      30.04S WCI  10
CHARLES CITY   CLEAR     18  12  79 SE8       30.07R WCI   7
OELWEIN        CLEAR     18  14  86 SE6       30.08F WCI   9
$$

...ELSEWHERE IN IOWA...


CITY           SKY/WX    TMP DP  RH WIND       PRES   REMARKS
DES MOINES     MOCLDY    33   8  35 SE8       30.05F WCI  26
IOWA CITY      CLEAR     25  19  78 SE5       30.13F WCI  19
FORT DODGE     MOCLDY    30  10  43 SE7       30.01F WCI  23
$$

...NORTHERN ILLINOIS...


CITY           SKY/WX    TMP DP  RH WIND       PRES   REMARKS
CHICAGO-OHARE  PTCLDY    21  15  78 SW8       30.16R WCI  11
CHICAGO-MIDWAY MOCLDY    25  17  72 SW7       30.18R WCI  17
MOLINE         PTCLDY    21  16  81 SW3       30.15R
ROCKFORD       CLEAR     17  13  84 S5        30.16S WCI  10
PEORIA         CLEAR     26  19  74 CALM      30.17R
$$

NOTE: "FAIR" INDICATES FEW OR NO CLOUDS BELOW 12,000 FEET WITH NO
SIGNIFICANT WEATHER AND/OR OBSTRUCTIONS TO VISIBILITY. WIND
SPEEDS ARE IN MILES-PER-HOUR.



USA.gov is the U.S. government's official web portal to all federal, state and local government web resources and services.